[[{"header":{"parameterUnit":"m.s-1","parameterCategory":1,"la1":30.2991,"la2":30.254,"lo1":-89.0895,"lo2":-89.0444,"dy":0.0017,"dx":0.0017,"nx":28,"ny":28,"refTime":"2024-03-26T09:00:00:Z","depth":0,"parameterNumber":2,"parameterNumberName":"U-component_of_WINDS"},"data":[0,0,0,0,0,0,0,0,0,0,0,0,0,0,0,0,0,0,0,0,0,0,0,0,0,0,0,0,0,0,0,0,0,0,0,0,0,0,0,0,0,0,0,0,0,0,0,0,0,0,0,0,0,0,0,0,0,0,-3.9686,-3.9691,0,-4.0143,-4.0148,-4.0153,-4.0315,-4.0313,-4.0312,-4.031,-4.0794,-4.0808,-4.0822,0,0,0,0,0,0,0,0,0,0,0,0,0,-3.8967,-3.898,-3.9686,-3.9691,-3.9697,-4.0142,-4.0148,-4.0155,-4.0316,-4.0313,-4.0311,-4.0309,-4.0789,-4.0806,-4.0823,0,0,0,0,0,0,0,0,0,0,0,0,0,-3.9337,-3.8984,-3.9685,-3.9831,-3.9848,-4.0141,-4.0148,-4.0156,-4.0316,-4.0313,-4.0311,-4.0308,-4.0783,-4.0804,-4.0826,-4.1011,0,0,-4.0892,-4.0901,0,0,0,0,0,0,0,0,-3.9316,-3.9364,-3.9804,-3.9821,-3.9841,-4.0169,-4.0072,-4.0443,-4.0317,-4.0139,-4.031,-4.0307,-4.0589,-4.0626,-4.0718,-4.1034,-4.1055,-4.0894,-4.0907,-4.0916,-4.0923,0,0,0,0,0,0,0,-3.929,-3.9345,-3.9867,-3.981,-3.9833,-3.9878,-3.9928,-4.0143,-4.0373,-4.0154,-4.0167,-4.0218,-4.0599,-4.0697,-4.0731,-4.1062,-4.0893,-4.0913,-4.0926,-4.0934,-4.1552,-4.1556,0,0,0,0,0,0,-3.9238,-3.9323,-3.9853,-3.9881,-3.9567,-3.9893,-3.9949,-4.0067,-4.0371,-4.0415,-4.022,-4.0224,-4.0661,-4.0705,-4.0748,-4.0985,-4.0916,-4.0937,-4.0949,-4.1549,-4.1553,-4.1557,0,0,0,0,0,0,-3.9222,-3.9284,-3.9834,-3.9605,-3.9679,-3.9908,-4.0039,-4.0077,-4.0175,-4.0421,-4.0464,-4.0276,-4.0661,-4.0718,-4.0943,-4.1004,-4.0946,-4.0966,-4.1545,-4.155,-4.1555,-4.1459,0,0,0,0,0,0,-3.9201,-3.9277,-3.9347,-3.9605,-3.969,-4.0017,-4.0043,-4.0088,-4.021,-4.022,-4.0485,-4.0527,-4.0663,-4.091,-4.0965,-4.1033,-4.0983,-4.1541,-4.1547,-4.1553,-4.1458,-4.146,-4.1462,0,0,0,0,0,-3.9175,-3.9305,-3.9349,-3.9412,-3.9781,-4.002,-4.0069,-4.0218,-4.0214,-4.0288,-4.0446,-4.0519,-4.0988,-4.0932,-4.0995,-4.107,-4.1538,-4.1545,-4.1553,-4.1457,-4.146,-4.1462,0,0,0,0,0,0,-3.9054,-3.9342,-3.9394,-3.9611,-3.9789,-4.0046,-4.0144,-4.0217,-4.0404,-4.0406,-4.0588,-4.0647,-4.0858,-4.0988,-4.092,-4.1266,-4.1268,-4.1288,-4.1173,-4.1178,-4.118,-4.1145,-4.1001,0,0,0,0,0,-3.9051,-3.9216,-3.9461,-3.963,-3.9715,-3.9913,-4.0024,-4.0122,-4.0317,-4.0394,-4.0569,-4.0758,-4.0949,-4.1071,-4.126,-4.1477,-4.1538,-4.1561,-4.1562,-4.1563,-4.1579,-4.1704,-4.1716,-4.1582,-4.1582,-4.1582,0,0,-3.905,-3.9228,-3.9322,-3.9609,-3.9759,-3.993,-3.9976,-4.0156,-4.0286,-4.0424,-4.0645,-4.0779,-4.1004,-4.1225,-4.1332,-4.134,-4.1629,-4.1573,-4.1571,-4.1588,-4.1713,-4.1725,-4.1736,-4.1587,-4.1586,-4.1585,0,0,-3.9135,-3.9285,-3.944,-3.9588,-3.9811,-3.9942,-3.9979,-4.0226,-4.0318,-4.0542,-4.0649,-4.0809,-4.1133,-4.1287,-4.1408,-4.1548,-4.1623,-4.1605,-4.1617,-4.1737,-4.1747,-4.1757,-4.1807,-4.1823,-4.162,-4.162,-4.162,0,-3.9107,-3.9363,-3.9513,-3.9685,-3.9809,-3.9936,-4.0097,-4.0235,-4.0511,-4.0596,-4.0599,-4.1006,-4.1167,-4.1426,-4.1459,-4.1553,-4.1603,-4.1576,-4.1732,-4.1744,-4.1756,-4.1806,-4.1825,-4.1617,-4.1617,-4.1617,-4.1618,0,-3.9317,-3.9493,-3.9593,-3.9849,-3.9985,-4.0151,-4.033,-4.045,-4.0537,-4.0668,-4.0896,-4.1091,-4.1321,-4.1391,-4.148,-4.1663,-4.166,-4.1696,-4.1702,-4.1763,-4.1813,-4.1833,-4.1611,-4.1613,-4.1614,-4.1615,0,0,-3.9341,-3.9673,-3.9708,-3.9825,-4.008,-4.0222,-4.0394,-4.0613,-4.0713,-4.0899,-4.105,-4.132,-4.1353,-4.149,-4.1599,-4.1703,-4.1801,-4.1727,-4.1735,-4.1733,-4.2015,-4.1986,-4.2005,-4.1851,-4.1855,-4.1859,-4.1996,0,-3.9458,-3.9765,-3.9905,-4.0152,-4.0318,-4.0439,-4.059,-4.0765,-4.0892,-4.1055,-4.1199,-4.1386,-4.1416,-4.1499,-4.1608,-4.1765,-4.186,-4.1758,-4.1997,-4.2004,-4.1936,-4.2032,-4.2003,-4.2123,-4.2016,-4.202,-4.2023,0,-3.9637,-3.9815,-4.0077,-4.0309,-4.0384,-4.0516,-4.0728,-4.0881,-4.1083,-4.1168,-4.1318,-4.1421,-4.1611,-4.1602,-4.1868,-4.1795,-4.1902,-4.1994,-4.2003,-4.2031,-4.2016,-4.2063,-4.2165,-4.2183,-4.2055,-4.2052,-4.205,0,-3.9627,-3.9934,-4.0129,-4.0226,-4.0503,-4.0592,-4.0713,-4.0912,-4.1034,-4.1221,-4.1302,-4.151,-4.1625,-4.1785,-4.1943,-4.1922,-4.2194,-4.2199,-4.2273,-4.2269,-4.2326,-4.232,-4.2446,-4.2393,-4.2393,-4.2392,-4.2392,0,-3.9744,-3.9899,-4.0128,-4.0248,-4.0426,-4.0587,-4.0761,-4.0891,-4.1066,-4.1217,-4.1338,-4.1478,-4.1677,-4.1844,-4.1969,-4.217,-4.2221,-4.2298,-4.233,-4.2288,-4.2278,-4.2361,-4.2357,-4.2398,-4.2396,-4.2395,-4.2395,0,-3.9763,-3.9922,-4.0143,-4.0385,-4.0449,-4.057,-4.0779,-4.0903,-4.1034,-4.1224,-4.1278,-4.1487,-4.1689,-4.1861,-4.2129,-4.2213,-4.2422,-4.2459,-4.2351,-4.2368,-4.2432,-4.2424,-4.2617,-4.265,-4.2573,-4.2573,-4.2574,0,-3.9827,-3.9949,-4.0201,-4.0307,-4.0424,-4.0595,-4.0718,-4.0882,-4.1006,-4.1243,-4.1339,-4.1548,-4.1724,-4.2042,-4.2221,-4.2427,-4.2471,-4.2524,-4.2503,-4.2456,-4.2472,-4.2463,-4.2476,-4.2525,-4.2525,-4.2525,-4.2525,0,-3.9925,-3.9996,-4.0166,-4.0363,-4.0505,-4.0671,-4.084,-4.0922,-4.1117,-4.1252,-4.1456,-4.1591,-4.1862,-4.2069,-4.2293,-4.2424,-4.2508,-4.2529,-4.2558,-4.2516,-4.2448,-4.2486,-4.2354,-4.2525,-4.2525,-4.2525,-4.2525,-4.2525,-3.997,-4.0082,-4.0275,-4.0461,-4.0604,-4.0758,-4.0884,-4.1029,-4.12,-4.1429,-4.1516,-4.1725,-4.1926,-4.2234,-4.2364,-4.2533,-4.2546,-4.2587,-4.2597,-4.2605,-4.2598,-4.2419,-4.2575,-4.2575,-4.2576,-4.2576,-4.2576,0,-4.0073,-4.0202,-4.037,-4.0599,-4.0745,-4.0805,-4.0995,-4.1115,-4.1295,-4.1471,-4.1639,-4.1875,-4.2076,-4.2268,-4.248,-4.2578,-4.2622,-4.2628,-4.2624,-4.2652,-4.2575,-4.2529,-4.2589,-4.2589,-4.2589,-4.2589,-4.2589,-4.2589,-4.0144,-4.0337,-4.0431,-4.0697,-4.0827,-4.1028,-4.1131,-4.1275,-4.1415,-4.167,-4.1835,-4.1956,-4.2141,-4.2366,-4.2554,-4.2606,-4.2679,-4.2675,-4.2737,-4.2661,-4.2658,-4.2654,-4.2612,-4.2689,-4.2689,-4.2801,-4.2802,-4.2803]},{"header":{"parameterUnit":"m.s-1","parameterCategory":1,"la1":30.2991,"la2":30.254,"lo1":-89.0895,"lo2":-89.0444,"dy":0.0017,"dx":0.0017,"nx":28,"ny":28,"refTime":"2024-03-26T09:00:00:Z","depth":0,"parameterNumber":3,"parameterNumberName":"V-component_of_WINDS"},"data":[0,0,0,0,0,0,0,0,0,0,0,0,0,0,0,0,0,0,0,0,0,0,0,0,0,0,0,0,0,0,0,0,0,0,0,0,0,0,0,0,0,0,0,0,0,0,0,0,0,0,0,0,0,0,0,0,0,0,7.8207,7.821,0,7.848,7.8483,7.8486,7.8522,7.852,7.8517,7.8515,7.8784,7.8793,7.8802,0,0,0,0,0,0,0,0,0,0,0,0,0,7.7705,7.7714,7.8207,7.821,7.8214,7.848,7.8483,7.8487,7.8523,7.8519,7.8516,7.8513,7.8781,7.8792,7.8803,0,0,0,0,0,0,0,0,0,0,0,0,0,7.7944,7.7717,7.8206,7.8264,7.8272,7.8479,7.8483,7.8488,7.8523,7.8519,7.8515,7.8512,7.8777,7.8791,7.8805,7.897,0,0,7.8849,7.8855,0,0,0,0,0,0,0,0,7.7931,7.7963,7.8252,7.826,7.8269,7.8463,7.8405,7.8649,7.8524,7.8427,7.8514,7.851,7.8679,7.8702,7.8761,7.8983,7.8995,7.885,7.8859,7.8865,7.8869,0,0,0,0,0,0,0,7.7914,7.7951,7.8314,7.8256,7.8267,7.8272,7.8302,7.8452,7.8571,7.8435,7.8439,7.8471,7.8683,7.8747,7.8767,7.8999,7.885,7.8862,7.8871,7.8877,7.9369,7.9373,0,0,0,0,0,0,7.7889,7.7937,7.8306,7.8323,7.8088,7.8284,7.8318,7.8405,7.857,7.8592,7.8474,7.8472,7.8724,7.8751,7.8777,7.8983,7.8865,7.8878,7.8886,7.9365,7.937,7.9375,0,0,0,0,0,0,7.7878,7.7921,7.8295,7.8131,7.8179,7.8297,7.8394,7.8412,7.8476,7.8599,7.862,7.8518,7.8722,7.8757,7.8923,7.8992,7.8885,7.8898,7.936,7.9366,7.9373,7.9394,0,0,0,0,0,0,7.7863,7.7917,7.7984,7.8133,7.8188,7.844,7.8399,7.842,7.8502,7.8501,7.8646,7.8666,7.8722,7.8901,7.8937,7.901,7.8909,7.9354,7.9363,7.9371,7.9388,7.9401,7.9412,0,0,0,0,0,7.7845,7.7977,7.7987,7.8032,7.8275,7.8444,7.8475,7.854,7.8507,7.8574,7.8653,7.8661,7.8978,7.8918,7.8959,7.9037,7.935,7.936,7.937,7.9382,7.9398,7.9412,0,0,0,0,0,0,7.783,7.7997,7.8011,7.8195,7.8305,7.8449,7.8536,7.8554,7.8673,7.8667,7.8739,7.8772,7.8934,7.9002,7.8931,7.9205,7.9161,7.9179,7.9156,7.9172,7.9184,7.9165,7.8921,0,0,0,0,0,7.7848,7.7975,7.8113,7.8262,7.8317,7.8417,7.8493,7.8534,7.8649,7.8695,7.8786,7.8894,7.9018,7.9099,7.922,7.9397,7.9428,7.947,7.9482,7.9492,7.9507,7.9606,7.9626,7.9408,7.9408,7.9408,0,0,7.7887,7.7994,7.8069,7.8262,7.8352,7.8479,7.8456,7.859,7.8684,7.8714,7.8878,7.8948,7.9073,7.9246,7.9326,7.9307,7.9574,7.9505,7.9511,7.9522,7.9618,7.9639,7.9657,7.9415,7.9414,7.9413,0,0,7.8023,7.8117,7.8253,7.8344,7.8482,7.8547,7.8579,7.8721,7.877,7.8936,7.8961,7.9071,7.9283,7.9373,7.9445,7.9614,7.9626,7.965,7.9714,7.9809,7.9826,7.9842,7.9903,7.9923,7.9665,7.9665,7.9665,0,7.8053,7.825,7.8319,7.8455,7.8537,7.8573,7.8709,7.8792,7.8961,7.9016,7.8992,7.926,7.9347,7.9541,7.9582,7.964,7.9677,7.9635,7.9819,7.9835,7.9851,7.9909,7.9932,7.9668,7.9667,7.9667,7.9667,0,7.8279,7.8414,7.8506,7.8673,7.8766,7.89,7.8987,7.9072,7.9103,7.917,7.9337,7.9443,7.9586,7.9634,7.9665,7.9832,7.9816,7.9805,7.9762,7.9873,7.9929,7.9952,7.9671,7.967,7.9669,7.9669,0,0,7.8415,7.8619,7.8652,7.8728,7.8882,7.8986,7.912,7.9264,7.9335,7.9449,7.9563,7.9741,7.9732,7.9815,7.9855,7.9938,8.0066,7.9917,7.9921,7.9942,8.0256,8.0265,8.029,8.0073,8.0078,8.0082,8.0246,0,7.857,7.8817,7.8882,7.9089,7.9214,7.9249,7.9366,7.9471,7.9536,7.9648,7.9717,7.9844,7.9822,7.9872,7.9956,8.0032,8.013,8.0021,8.0178,8.0183,8.0148,8.032,8.033,8.048,8.0268,8.0272,8.0275,0,7.8785,7.8908,7.9129,7.9267,7.9322,7.9427,7.9563,7.9671,7.9789,7.983,7.9923,7.9956,8.0094,8.0042,8.0232,8.0156,8.0223,8.027,8.0278,8.0296,8.0237,8.0344,8.0529,8.0552,8.031,8.0307,8.0304,0,7.8863,7.9083,7.9244,7.9308,7.9473,7.9546,7.9617,7.9732,7.9814,7.9932,7.9985,8.0115,8.0187,8.0285,8.0351,8.0307,8.0536,8.0489,8.0572,8.0571,8.0621,8.0617,8.0821,8.0661,8.066,8.066,8.066,0,7.9031,7.9165,7.9282,7.9381,7.9531,7.9603,7.9748,7.982,7.9922,8.0033,8.0068,8.0171,8.0251,8.0363,8.0415,8.0565,8.0596,8.0631,8.0644,8.063,8.0625,8.0676,8.0668,8.0666,8.0665,8.0664,8.0663,0,7.9145,7.9229,7.9407,7.9549,7.9588,7.9692,7.9812,7.9908,7.9973,8.0114,8.015,8.0252,8.0386,8.0462,8.0629,8.0663,8.083,8.0836,8.0792,8.0798,8.0878,8.087,8.1123,8.116,8.0973,8.0975,8.0976,0,7.9247,7.9352,7.9506,7.9585,7.9659,7.9785,7.987,7.9943,8.0029,8.0172,8.025,8.0387,8.0501,8.0713,8.08,8.0927,8.0938,8.1017,8.0957,8.094,8.0941,8.0935,8.0945,8.1028,8.103,8.1031,8.1033,0,7.942,7.9457,7.958,7.9718,7.9819,7.993,8.004,8.0101,8.0192,8.0286,8.0426,8.0515,8.0687,8.0822,8.0957,8.1026,8.1044,8.1051,8.1077,8.1065,8.1036,8.1054,8.0823,8.1045,8.1044,8.1043,8.1042,8.1042,7.9533,7.9628,7.9752,7.9888,7.9978,8.008,8.0178,8.0256,8.0376,8.0525,8.0559,8.0706,8.082,8.1004,8.1076,8.119,8.1175,8.1213,8.1223,8.1231,8.1235,8.1016,8.1214,8.1214,8.1214,8.1213,8.1213,0,7.9709,7.9791,7.9915,8.007,8.0175,8.0186,8.0308,8.0395,8.0525,8.0632,8.0744,8.0904,8.1035,8.1132,8.1265,8.1337,8.1348,8.1369,8.1366,8.1381,8.124,8.1205,8.1358,8.1358,8.1358,8.1358,8.1358,8.1358,7.9814,7.9975,8.0026,8.0231,8.0311,8.0459,8.0528,8.0621,8.0706,8.0885,8.0996,8.1059,8.1161,8.1302,8.1421,8.1446,8.1494,8.1514,8.154,8.1406,8.1391,8.1376,8.1344,8.1523,8.1524,8.1672,8.1673,8.1674]}]]